O/OREOS (USA 219)

Last updated on Wed Feb 04 2026 00:03:13 GMT+0000 (Coordinated Universal Time)

1 37224U 10062C 26034.63110012 .00003694 00000+0 35964-3 0 9997 2 37224 71.9715 22.7178 0016517 314.5868 45.3953 14.93054774 96707
UTC large
Height (km)
Speed (km/s)
/
Latitude / Longitude
Inclination (degrees)
Orbital Period (minutes)
Azimuth
Elevation
Range (km)
Doppler Factor

Next 0 passes for location: London (51.5072 / 0.1276)

Sorry there are no passes over London.